Regional Weather Roundup
Issued by NWS

Home | Current Version | Previous Version | Text Only | Print | Product List | Glossary Off
Versions: 1 2 3 4 5 6 7 8 9 10 11 12 13 14 15 16 17 18 19 20 21 22 23 24 25 26 27 28 29 30 31 32 33 34 35 36 37 38 39 40 41 42 43 44 45 46 47 48 49 50

000
ASUS43 KOAX 171210
RWRNE

WEATHER ROUNDUP FOR NEBRASKA
NATIONAL WEATHER SERVICE OMAHA NE
700 AM CDT THU APR 17 2014

NOTES: SATELLITE DATA IS BEING USED TO AUGMENT CLOUD COVER ABOVE
       12000 FEET.
       "FAIR" INDICATES FEW OR NO CLOUDS BELOW 12,000 FEET WITH NO
       SIGNIFICANT WEATHER AND/OR OBSTRUCTIONS TO VISIBILITY.

  * THESE STATIONS DO NOT REPORT WEATHER SUCH AS RAIN...SNOW OR FOG.

NEZ001>004-019>022-054>056-171300-
NEBRASKA PANHANDLE

CITY           SKY/WX    TMP DP  RH WIND       PRES   REMARKS
SCOTTSBLUFF    CLOUDY    33  29  85 SE14      30.14R WCI  23
6HR MIN TEMP:  33; 6HR MAX TEMP:  36;

ALLIANCE       CLOUDY    31  28  89 SE3       30.15R
6HR MIN TEMP:  29; 6HR MAX TEMP:  32; 6HR PCP: TRACE;

CHADRON        CLOUDY    33  30  88 E5        30.15S WCI  29
6HR MIN TEMP:  30; 6HR MAX TEMP:  33;

KIMBALL        SNOW      31  29  94 S15       30.09S VSB 1/4 WCI  20
SIDNEY         CLOUDY    31  29  92 SE9       30.14F FOG     WCI  23
6HR MIN TEMP:  31; 6HR MAX TEMP:  33;

$$

NEZ057>060-069>072-079>082-171300-
SOUTHWEST NEBRASKA

CITY           SKY/WX    TMP DP  RH WIND       PRES   REMARKS
NORTH PLATTE   CLOUDY    28  22  78 N8        30.22S WCI  20
6HR MIN TEMP:  28; 6HR MAX TEMP:  32;

IMPERIAL       CLOUDY    30  26  85 NE6       30.20S FOG     WCI  24
6HR MIN TEMP:  30; 6HR MAX TEMP:  34;

LEXINGTON      CLOUDY    30  26  83 N7        30.24R WCI  23
MCCOOK         CLOUDY    31  25  78 NE7       30.24R WCI  24
6HR MIN TEMP:  31; 6HR MAX TEMP:  33;

OGALLALA       CLOUDY    32  27  81 CALM      30.20R
$$

NEZ005>010-023>029-035>040-094-171300-
NORTH CENTRAL NEBRASKA

CITY           SKY/WX    TMP DP  RH WIND       PRES   REMARKS
VALENTINE      PTCLDY    22  18  85 CALM      30.25R
6HR MIN TEMP:  20; 6HR MAX TEMP:  30;

AINSWORTH      CLEAR     24  22  91 CALM      30.25R
BROKEN BOW     CLOUDY    28  23  81 N12       30.23R WCI  18
6HR MIN TEMP:  28; 6HR MAX TEMP:  30;

O`NEILL        PTCLDY    24  20  83 N6        30.27S WCI  17
ORD            CLOUDY    29  22  75 N13       30.24S WCI  19
6HR MIN TEMP:  29; 6HR MAX TEMP:  31;

THEDFORD       PTCLDY    26  21  83 CALM      30.24R
$$

NEZ041-046>049-061>064-073>077-083>087-171300-
SOUTH CENTRAL NEBRASKA

CITY           SKY/WX    TMP DP  RH WIND       PRES   REMARKS
GRAND ISLAND   CLOUDY    32  24  72 N12       30.27R WCI  23
6HR MIN TEMP:  31; 6HR MAX TEMP:  33;

AURORA         CLOUDY    32  26  79 N10       30.27R WCI  24
HASTINGS       CLOUDY    31  24  75 N12       30.26R WCI  22
6HR MIN TEMP:  31; 6HR MAX TEMP:  34;

HEBRON         CLOUDY    33  26  74 N12       30.26R WCI  24
HOLDREGE       CLOUDY    31  25  78 NE12      30.25R WCI  21
KEARNEY *      CLOUDY    30  25  80 N12       30.26R WCI  21
YORK           CLOUDY    32  25  74 N15       30.27R WCI  22
$$

NEZ011>018-030>034-042>045-171300-
NORTHEAST NEBRASKA

CITY           SKY/WX    TMP DP  RH WIND       PRES   REMARKS
NORFOLK        CLOUDY    30  22  72 NW13      30.25R WCI  20
6HR MIN TEMP:  30; 6HR MAX TEMP:  32;

ALBION         MOCLDY    30  23  74 N12       30.25R WCI  21
BLAIR          CLOUDY    31  24  76 NW10      30.26R WCI  22
COLUMBUS *     CLOUDY    30  19  64 N9        30.28R WCI  22
FREMONT        CLOUDY    32  26  77 NW9       30.28R WCI  24
TEKAMAH        CLOUDY    32  23  69 NW13      30.28R WCI  22
6HR MIN TEMP:  32; 6HR MAX TEMP:  35;

$$

NEZ050>053-065>068-078-088>093-171300-
SOUTHEAST NEBRASKA

CITY           SKY/WX    TMP DP  RH WIND       PRES   REMARKS
LINCOLN        CLOUDY    33  24  69 N12       30.28R WCI  24
6HR MIN TEMP:  33; 6HR MAX TEMP:  37;

OMAHA EPPLEY   CLOUDY    32  24  72 NW14      30.28R WCI  22
6HR MIN TEMP:  32; 6HR MAX TEMP:  36;

BEATRICE       CLOUDY    33  26  75 N13       30.26R WCI  24
FALLS CITY     CLOUDY    35  27  72 NW12      30.24R WCI  27
6HR MIN TEMP:  35; 6HR MAX TEMP:  39;

NEBRASKA CITY  CLOUDY    33  27  77 N13       30.25R WCI  24
PLATTSMOUTH    CLOUDY    32  25  74 NW13      30.25R WCI  23
$$

NEZ044-045-051>053-067-171300-
OMAHA AREA

CITY           SKY/WX    TMP DP  RH WIND       PRES   REMARKS
OMAHA EPPLEY   CLOUDY    32  24  72 NW14      30.28R WCI  22
6HR MIN TEMP:  32; 6HR MAX TEMP:  36;

BLAIR          CLOUDY    31  24  76 NW10      30.26R WCI  22
FREMONT        CLOUDY    32  26  77 NW9       30.28R WCI  24
MILLARD        CLOUDY    32  24  72 NW9       30.28R WCI  24
OFFUTT AFB     CLOUDY    33  26  77 NW13      30.26R WCI  24
PLATTSMOUTH    CLOUDY    32  25  74 NW13      30.25R WCI  23
WAHOO          CLOUDY    32  23  70 N15       30.27R WCI  21
$$



USA.gov is the U.S. government's official web portal to all federal, state and local government web resources and services.